Hourly Data Report for May 02, 2003

SHERBROOKE A
QUEBEC

45°26'00.000" N
71°41'00.000" W
241.40 m
7028124
71610
YSC

Download Data

Hourly Data (May 2003)
Hourly Data Report for May 2, 2003
TIME
LST
Temp Definition
°C
Dew Point Definition
°C
Rel Hum Definition
%
Precip. Amount Definition
mm

Wind Dir Definition
10's deg

Wind Spd Definition
km/h
Visibility Definition
km
Stn Press Definition
kPa
Hmdx Definition


Wind Chill Definition


Weather Definition


00:00 7.8 7.5 98   29 11 2.4 98.37      
01:00 7.1 6.9 99   28 9 0.3 98.39      
02:00 6.6 6.3 98   29 6 2.6 98.36      
03:00 6.5 6.2 98     0 4.0 98.31      
04:00 6.5 6.1 97   1 4 1.9 98.37      
05:00 6.2 5.7 97   1 4 8.0 98.40      
06:00 5.8 5.0 95   3 11 12.9 98.42      
07:00 5.8 5.1 95   3 9 6.4 98.41     Rain,Fog
08:00 6.2 5.6 96   3 7 16.1 98.40     Rain
09:00 6.3 5.6 95   1 7 16.1 98.49     Rain
10:00 6.8 6.1 95   1 9 19.3 98.44     Cloudy
11:00 6.5 5.4 93   1 15 16.1 98.55     Rain
12:00 5.8 4.6 92   2 15 4.8 98.60     Moderate Rain,Fog
13:00 5.8 4.8 93   5 11 16.1 98.62     Rain
14:00 5.8 4.9 94   6 13 19.3 98.51     Rain
15:00 6.3 5.2 93   2 7 24.1 98.52     Cloudy
16:00 6.5 4.5 87   3 11 24.1 98.53     Mostly Cloudy
17:00 7.3 4.9 85   1 9 15.0 98.57      
18:00 6.8 4.5 85   5 11 15.0 98.61      
19:00 6.3 4.7 89   32 11 15.0 98.69      
20:00 5.7 4.4 91   33 6 15.0 98.73      
21:00 4.6 3.3 91   6 6 15.0 98.74      
22:00 3.8 2.9 94   2 4 15.0 98.75      
23:00 1.5 0.7 94     0 2.6 98.77      

Notes on Data Quality.

Legend

  • E = Estimated
  • M = Missing
  • NA = Not Available*
  • [empty] = Indicates an unobserved value
Date modified: